Tracking 27420 objects as of 28-May-2023
HD Live streaming from Space Station
objects crossing your sky now

STARLINK-6318

Track STARLINK-6318 now!
10-day predictions
STARLINK-6318 is classified as:


NORAD ID: 56530
Int'l Code: 2023-065AD
Perigee: 360.9 km
Apogee: 363.3 km
Inclination: 43.0 °
Period: 91.6 minutes
Semi major axis: 6733 km
RCS: Unknown
Launch date: May 14, 2023
Source: United States (US)
Launch site: AIR FORCE EASTERN TEST RANGE (AFETR)
Your satellite tracking list
Your tracking list is empty




NASA's NSSDC Master Catalog

Two Line Element Set (TLE):
1 56530U 23065AD  23148.06490194  .00026330  00000-0  20348-3 0  9990
2 56530  43.0009   0.6875 0001770 277.1473  82.9193 15.71368837  3395
Source of the keplerian elements: AFSPC